Weather History for Howell, MI

Change the Weather History Date:

Monday, November 11, 2013

  Actual Average Record
Temperature  
Mean Temperature 36 °F -  
Max Temperature 43 °F 47 °F 68 °F (2012)
Min Temperature 27 °F 32 °F 23 °F (1997)
Degree Days  
Heating Degree Days 30    
Moisture  
Dew Point 31 °F    
Average Humidity 81    
Maximum Humidity 99    
Minimum Humidity 65    
Precipitation  
Precipitation 0.00 in - - ()
Sea Level Pressure  
Sea Level Pressure 30.12 in    
Wind  
Wind Speed 8 mph (West)    
Max Wind Speed 15 mph    
Max Gust Speed 23 mph    
Visibility 8 miles    
Events Rain , Snow    
Averages and records for this station are not official NWS values.
T = Trace of Precipitation, MM = Missing Value Source: NWS Daily Summary

Daily Weather History Graph

Daily Weather History Graph

Search for Another Location

Airport:

Trip Planner

Search our weather history database for the weather conditions in past years. The results will help you decide how hot, cold, wet, or windy it might be!

Date:

Astronomy

Nov. 11, 2013 Rise Set
Actual Time 7:22 AM EST 5:16 PM EST
Civil Twilight 6:52 AM EST 5:46 PM EST
Nautical Twilight 6:18 AM EST 6:20 PM EST
Astronomical Twilight 5:45 AM EST 6:53 PM EST
Moon 2:04 PM EST (11/11) 12:58 AM EST (11/11)
Length of Visible Light 10h 54m
Length of Day
9h 54m
Waxing Gibbous, 66% of the Moon is Illuminated
Nov 11
Waxing Gibbous
Nov 17
Full
Nov 25
Last Quarter
Dec 2
New
Dec 9
First Quarter

Hourly Weather History & Observations

Time (EST) Temp. Windchill Dew Point Humidity Pressure Visibility Wind Dir Wind Speed Gust Speed Precip Events Conditions
12:14 AM 36.0 °F 32.1 °F 31.1 °F 82% 30.21 in 10.0 mi SSW 4.6 mph - N/A   Mostly Cloudy
12:35 AM 36.1 °F 32.3 °F 31.5 °F 83% 30.20 in 10.0 mi SSW 4.6 mph - N/A   Mostly Cloudy
12:54 AM 36.1 °F 32.3 °F 31.8 °F 84% 30.20 in 10.0 mi SSW 4.6 mph - N/A   Mostly Cloudy
1:14 AM 36.7 °F 32.9 °F 31.8 °F 83% 30.19 in 10.0 mi SSW 4.6 mph - N/A   Overcast
1:35 AM 36.9 °F 34.3 °F 32.0 °F 83% 30.17 in 10.0 mi South 3.5 mph - N/A   Overcast
1:54 AM 37.6 °F 31.6 °F 32.0 °F 80% 30.17 in 10.0 mi SW 8.1 mph - N/A   Overcast
2:14 AM 38.3 °F 33.2 °F 32.0 °F 78% 30.16 in 10.0 mi SSW 6.9 mph - N/A   Overcast
2:35 AM 38.3 °F 32.5 °F 32.0 °F 78% 30.15 in 10.0 mi SSW 8.1 mph - N/A   Overcast
2:54 AM 38.7 °F 32.4 °F 32.0 °F 77% 30.15 in 10.0 mi SSW 9.2 mph - N/A   Overcast
3:15 AM 39.4 °F 32.3 °F 32.0 °F 75% 30.14 in 10.0 mi SSW 11.5 mph - N/A   Overcast
3:34 AM 40.1 °F 33.2 °F 32.0 °F 73% 30.13 in 10.0 mi SSW 11.5 mph 21.9 mph N/A   Overcast
3:54 AM 39.7 °F 34.3 °F 32.0 °F 74% 30.11 in 10.0 mi SW 8.1 mph - N/A   Overcast
4:15 AM 39.7 °F 33.7 °F 32.0 °F 74% 30.10 in 10.0 mi SSW 9.2 mph - N/A   Overcast
4:34 AM 39.7 °F 33.7 °F 32.0 °F 74% 30.09 in 10.0 mi SSW 9.2 mph - N/A   Overcast
4:54 AM 40.1 °F 34.7 °F 32.0 °F 73% 30.09 in 10.0 mi SSW 8.1 mph - N/A   Overcast
5:14 AM 40.1 °F 34.7 °F 32.0 °F 73% 30.09 in 10.0 mi SSW 8.1 mph - N/A   Overcast
5:34 AM 40.3 °F 34.9 °F 32.0 °F 72% 30.08 in 10.0 mi SSW 8.1 mph - N/A   Overcast
5:55 AM 40.5 °F 34.1 °F 32.0 °F 72% 30.08 in 10.0 mi SSW 10.4 mph - N/A   Overcast
6:14 AM 40.6 °F 34.8 °F 32.0 °F 71% 30.06 in 10.0 mi SSW 9.2 mph - N/A   Overcast
6:34 AM 41.0 °F 34.7 °F 32.0 °F 70% 30.06 in 10.0 mi SW 10.4 mph - N/A   Overcast
6:55 AM 41.0 °F 36.4 °F 32.0 °F 70% 30.05 in 10.0 mi SW 6.9 mph - N/A   Overcast
7:14 AM 41.4 °F 35.2 °F 32.0 °F 69% 30.04 in 10.0 mi SSW 10.4 mph - N/A   Overcast
7:34 AM 41.4 °F 36.8 °F 32.0 °F 69% 30.05 in 10.0 mi SW 6.9 mph - N/A   Overcast
7:55 AM 41.9 °F 36.9 °F 32.0 °F 68% 30.04 in 10.0 mi SW 8.1 mph - N/A   Overcast
8:14 AM 42.1 °F 36.6 °F 32.0 °F 67% 30.05 in 10.0 mi SW 9.2 mph - N/A   Overcast
8:34 AM 42.8 °F 37.5 °F 32.0 °F 66% 30.05 in 10.0 mi SW 9.2 mph - N/A   Overcast
8:55 AM 42.8 °F 37.0 °F 32.2 °F 66% 30.05 in 10.0 mi SW 10.4 mph 17.3 mph N/A   Overcast
9:14 AM 43.0 °F 36.8 °F 32.0 °F 65% 30.04 in 10.0 mi SW 11.5 mph 17.3 mph N/A   Overcast
9:34 AM 43.0 °F 37.7 °F 32.4 °F 66% 30.04 in 10.0 mi SW 9.2 mph - N/A   Overcast
9:55 AM 42.8 °F 37.0 °F 33.4 °F 70% 30.04 in 10.0 mi WSW 10.4 mph - N/A   Light Drizzle
10:14 AM 42.3 °F 36.3 °F 34.9 °F 75% 30.05 in 7.0 mi WSW 10.4 mph - N/A Rain Light Rain
10:34 AM 41.4 °F 36.2 °F 36.5 °F 83% 30.05 in 7.0 mi WSW 8.1 mph - N/A   Drizzle
10:55 AM 41.4 °F 35.2 °F 36.7 °F 83% 30.04 in 10.0 mi WSW 10.4 mph - N/A   Light Drizzle
11:14 AM 41.5 °F 36.4 °F 37.2 °F 85% 30.03 in 7.0 mi WSW 8.1 mph - N/A   Light Drizzle
11:34 AM 41.5 °F 35.9 °F 37.6 °F 86% 30.03 in 7.0 mi WSW 9.2 mph - N/A Rain Light Rain
11:54 AM 41.5 °F 35.0 °F 38.5 °F 89% 30.03 in 5.0 mi West 11.5 mph 17.3 mph N/A   Drizzle
12:14 PM 41.4 °F 33.6 °F 38.8 °F 91% 30.03 in 5.0 mi West 15.0 mph 18.4 mph N/A Rain Light Rain
12:35 PM 41.2 °F 34.5 °F 39.2 °F 93% 30.02 in 5.0 mi West 11.5 mph 19.6 mph N/A Rain Rain
12:54 PM 41.2 °F 35.0 °F 39.2 °F 93% 30.02 in 5.0 mi West 10.4 mph - N/A Rain Light Rain
1:14 PM 41.0 °F 33.1 °F 39.2 °F 93% 30.02 in 5.0 mi West 15.0 mph - N/A Rain Light Rain
1:35 PM 40.6 °F 33.0 °F 38.5 °F 92% 30.03 in 5.0 mi WNW 13.8 mph 18.4 mph N/A Rain Rain
1:54 PM 39.4 °F 31.4 °F 37.4 °F 93% 30.03 in 4.0 mi NW 13.8 mph 19.6 mph N/A Rain Light Rain
2:14 PM 38.3 °F 30.9 °F 36.5 °F 93% 30.04 in 3.0 mi WNW 11.5 mph 17.3 mph N/A Rain Rain
2:35 PM 37.9 °F 30.9 °F 36.5 °F 95% 30.04 in 5.0 mi NW 10.4 mph - N/A Rain Rain
2:55 PM 37.4 °F 29.8 °F 36.0 °F 95% 30.05 in 3.0 mi NW 11.5 mph 17.3 mph N/A Rain Light Rain
3:14 PM 34.3 °F 26.5 °F 33.3 °F 96% 30.06 in 1.5 mi NNW 10.4 mph 16.1 mph N/A Snow Light Snow
3:35 PM 33.8 °F 27.7 °F 32.9 °F 96% 30.08 in 1.2 mi North 6.9 mph 16.1 mph N/A Snow Light Snow
3:54 PM 32.5 °F 26.2 °F 32.0 °F 98% 30.09 in 0.8 mi NNW 6.9 mph - N/A Snow Light Snow
4:14 PM 32.0 °F 24.8 °F 31.8 °F 99% 30.10 in 1.0 mi North 8.1 mph - N/A Snow Light Snow
4:35 PM 31.8 °F 24.6 °F 31.1 °F 97% 30.12 in 0.8 mi NNW 8.1 mph - N/A Snow Light Snow
4:54 PM 32.0 °F 23.0 °F 31.5 °F 98% 30.13 in 0.8 mi NNW 11.5 mph - N/A Snow Light Snow
5:14 PM 30.9 °F 24.3 °F 30.0 °F 96% 30.14 in 1.8 mi North 6.9 mph 17.3 mph N/A Snow Light Snow
5:35 PM 30.2 °F 22.6 °F 29.1 °F 96% 30.15 in 2.0 mi North 8.1 mph 17.3 mph N/A Snow Light Snow
5:54 PM 29.8 °F 20.9 °F 28.4 °F 94% 30.16 in 7.0 mi NNW 10.4 mph 16.1 mph N/A   Overcast
6:14 PM 30.2 °F 24.3 °F 28.2 °F 92% 30.17 in 4.0 mi NNW 5.8 mph - N/A Snow Light Snow
6:35 PM 30.2 °F 23.4 °F 28.0 °F 92% 30.18 in 10.0 mi NNW 6.9 mph - N/A   Overcast
6:54 PM 30.2 °F 24.3 °F 27.0 °F 88% 30.19 in 10.0 mi NNW 5.8 mph - N/A   Overcast
7:14 PM 30.2 °F 21.3 °F 25.7 °F 83% 30.20 in 10.0 mi NNW 10.4 mph - N/A   Overcast
7:35 PM 30.2 °F 22.6 °F 23.9 °F 77% 30.20 in 10.0 mi NNW 8.1 mph 17.3 mph N/A   Overcast
7:54 PM 29.8 °F 20.3 °F 22.8 °F 75% 30.21 in 10.0 mi NNW 11.5 mph 18.4 mph N/A   Overcast
8:14 PM 29.8 °F 20.3 °F 23.2 °F 76% 30.22 in 10.0 mi NNW 11.5 mph - N/A   Overcast
8:35 PM 29.7 °F 19.6 °F 22.1 °F 73% 30.23 in 10.0 mi NNW 12.7 mph 23.0 mph N/A   Mostly Cloudy
8:54 PM 29.3 °F 19.1 °F 22.6 °F 76% 30.23 in 10.0 mi NNW 12.7 mph 18.4 mph N/A   Scattered Clouds
9:14 PM 29.1 °F 20.0 °F 22.8 °F 77% 30.25 in 10.0 mi NNW 10.4 mph - N/A   Scattered Clouds
9:35 PM 28.9 °F 21.9 °F 23.0 °F 78% 30.25 in 10.0 mi NNW 6.9 mph - N/A   Mostly Cloudy
9:54 PM 28.9 °F 21.1 °F 23.9 °F 81% 30.26 in 10.0 mi NNW 8.1 mph - N/A   Mostly Cloudy
10:14 PM 28.8 °F 20.2 °F 23.4 °F 80% 30.28 in 10.0 mi NW 9.2 mph - N/A   Mostly Cloudy
10:35 PM 28.6 °F 20.7 °F 22.3 °F 77% 30.28 in 10.0 mi NW 8.1 mph - N/A   Overcast
10:54 PM 28.4 °F 19.7 °F 22.6 °F 79% 30.29 in 10.0 mi NW 9.2 mph - N/A   Overcast
11:14 PM 28.2 °F 19.5 °F 22.3 °F 78% 30.30 in 10.0 mi NW 9.2 mph - N/A   Overcast
11:35 PM 28.2 °F 19.5 °F 22.5 °F 79% 30.30 in 10.0 mi NW 9.2 mph - N/A   Overcast
11:54 PM 27.7 °F 18.8 °F 22.1 °F 80% 30.30 in 10.0 mi NNW 9.2 mph - N/A   Overcast